Weather History for LIRE - March, 2013

Change the Weather History Date:

Saturday, March 2, 2013

  Actual Average Record
Temperature  
Mean Temperature 54 °F -  
Max Temperature 61 °F 58 °F 69 °F (2012)
Min Temperature 44 °F 42 °F 26 °F (2005)
Degree Days  
Heating Degree Days 11    
Growing Degree Days 4 (Base 50)    
Moisture  
Dew Point 41 °F    
Average Humidity 63    
Maximum Humidity 93    
Minimum Humidity 25    
Precipitation  
Precipitation 0.00 in 0.09 in - ()
Sea Level Pressure  
Sea Level Pressure 29.83 in    
Wind  
Wind Speed 9 mph ()    
Max Wind Speed 14 mph    
Max Gust Speed -    
Visibility 6.3 miles    
Events      
Averages and records for this station are not official NWS values.
T = Trace of Precipitation, MM = Missing Value Source: Averaged Metar Reports

Daily Weather History Graph

Daily Weather History Graph

Search for Another Location

Airport or City:

Trip Planner

Search our weather history database for the weather conditions in past years. The results will help you decide how hot, cold, wet, or windy it might be!

Date:

Astronomy

Mar. 02, 2013 Rise Set
Actual Time 6:43 AM CET 6:01 PM CET
Civil Twilight 6:15 AM CET 6:29 PM CET
Nautical Twilight 5:43 AM CET 7:01 PM CET
Astronomical Twilight 5:11 AM CET 7:34 PM CET
Moon 11:27 PM CET (3/2) 8:54 AM CET (3/2)
Length of Visible Light 12h 14m
Length of Day
11h 18m
Waning Gibbous, 76% of the Moon is Illuminated
Mar 2
Waning Gibbous
Mar 4
Last Quarter
Mar 11
New
Mar 19
First Quarter
Mar 27
Full

Hourly Weather History & Observations

Time (CET) Temp. Windchill Dew Point Humidity Pressure Visibility Wind Dir Wind Speed Gust Speed Precip Events Conditions
1:00 AM 49 °F - 42 °F 69% 29.83 in 4 mi NNE 10.4 mph - -   Scattered Clouds
1:55 AM 48.2 °F - 41.0 °F 76% 29.83 in 4.3 mi NNE 9.2 mph - N/A   Partly Cloudy
3:55 AM 50.0 °F - 44.6 °F 82% 29.80 in 4.3 mi North 13.8 mph - N/A   Scattered Clouds
4:00 AM 50 °F - 44 °F 72% 29.80 in 4 mi North 13.8 mph - -   Mist
4:55 AM 50.0 °F - 42.8 °F 76% 29.80 in 4.3 mi NNE 10.4 mph - N/A   Mostly Cloudy
6:55 AM 50.0 °F - 44.6 °F 82% 29.77 in 5.0 mi North 5.8 mph - N/A   Scattered Clouds
7:00 AM 49 °F - 44 °F 77% 29.79 in 5 mi North 5.8 mph - -   Mist
8:55 AM 51.8 °F - 42.8 °F 71% 29.77 in 6.2 mi NNE 12.7 mph - N/A   Scattered Clouds
9:55 AM 53.6 °F - 42.8 °F 67% 29.80 in 6.2 mi NNE 9.2 mph - N/A   Scattered Clouds
10:55 AM 57.2 °F - 42.8 °F 59% 29.80 in 6.2 mi NNE 12.7 mph - N/A   Mostly Cloudy
11:55 AM 59.0 °F - 41.0 °F 51% 29.80 in 6.2 mi NNE 13.8 mph - N/A   Mostly Cloudy
1:00 PM 60 °F - 38 °F 32% 29.82 in 9 mi NNE 12.7 mph - -   Overcast
1:55 PM 59.0 °F - 37.4 °F 45% 29.80 in 6.2 mi NNE 10.4 mph - N/A   Mostly Cloudy
2:55 PM 59.0 °F - 39.2 °F 48% 29.80 in 6.2 mi NE 9.2 mph - N/A   Mostly Cloudy
3:55 PM 60.8 °F - 33.8 °F 36% 29.80 in 6.2 mi NNE 11.5 mph - N/A   Mostly Cloudy
4:00 PM 60 °F - 34 °F 25% 29.83 in 9 mi NNE 11.5 mph - -   Overcast
5:55 PM 57.2 °F - 35.6 °F 44% 29.86 in 6.2 mi ENE 5.8 mph - N/A   Scattered Clouds
6:55 PM 53.6 °F - 48.2 °F 82% 29.89 in 6.2 mi East 5.8 mph - N/A   Scattered Clouds
7:00 PM 53 °F - 48 °F 76% 29.89 in 12 mi East 5.8 mph - -   Scattered Clouds
7:55 PM 48.2 °F - 46.4 °F 93% 29.92 in 6.2 mi North 4.6 mph - N/A   Partly Cloudy
10:00 PM 47 °F - 36 °F 56% 29.97 in 9 mi NNE 5.8 mph - -   Scattered Clouds
11:55 PM 44.6 °F 40.2 °F 35.6 °F 71% 29.98 in 6.2 mi ENE 8.1 mph - N/A   Partly Cloudy